[[{"header":{"parameterUnit":"m.s-1","parameterCategory":1,"la1":30.2991,"la2":30.254,"lo1":-89.0895,"lo2":-89.0444,"dy":0.0017,"dx":0.0017,"nx":28,"ny":28,"refTime":"2025-08-13T21:00:00:Z","depth":0,"parameterNumber":2,"parameterNumberName":"U-component_of_WINDS"},"data":[0,0,0,0,0,0,0,0,0,0,0,0,0,0,0,0,0,0,0,0,0,0,0,0,0,0,0,0,0,0,0,0,0,0,0,0,0,0,0,0,0,0,0,0,0,0,0,0,0,0,0,0,0,0,0,0,0,0,3.1987,3.1988,0,3.2048,3.2049,3.205,3.2039,3.2038,3.2037,3.2036,3.2101,3.2104,3.2106,0,0,0,0,0,0,0,0,0,0,0,0,0,3.1864,3.1866,3.1987,3.1988,3.1988,3.2048,3.2049,3.205,3.2039,3.2038,3.2036,3.2035,3.21,3.2103,3.2107,0,0,0,0,0,0,0,0,0,0,0,0,0,3.1921,3.1867,3.1987,3.199,3.1991,3.2048,3.2049,3.205,3.2039,3.2038,3.2036,3.2034,3.2099,3.2103,3.2107,3.2165,0,0,3.212,3.2121,0,0,0,0,0,0,0,0,3.1917,3.1925,3.1989,3.199,3.1991,3.2034,3.203,3.2089,3.204,3.2021,3.2036,3.2034,3.208,3.2086,3.2101,3.2168,3.2171,3.212,3.2123,3.2124,3.2125,0,0,0,0,0,0,0,3.1913,3.1922,3.2011,3.199,3.1991,3.199,3.1996,3.2041,3.2059,3.2023,3.2022,3.2029,3.2081,3.2097,3.2102,3.2172,3.212,3.2124,3.2126,3.2128,3.2292,3.2294,0,0,0,0,0,0,3.1908,3.1919,3.2009,3.2013,3.1949,3.1993,3.2,3.2022,3.2059,3.2063,3.203,3.2028,3.2091,3.2098,3.2105,3.2176,3.2124,3.2128,3.2131,3.229,3.2292,3.2295,0,0,0,0,0,0,3.1905,3.1916,3.2007,3.1966,3.1977,3.1997,3.2022,3.2024,3.204,3.2065,3.2068,3.2044,3.209,3.2099,3.215,3.2178,3.213,3.2134,3.2288,3.2291,3.2294,3.2319,0,0,0,0,0,0,3.1902,3.1915,3.1937,3.1967,3.198,3.2051,3.2023,3.2027,3.2047,3.2045,3.2078,3.2082,3.2089,3.2144,3.2155,3.2183,3.2137,3.2286,3.2289,3.2293,3.2316,3.2322,3.2328,0,0,0,0,0,3.1898,3.1942,3.1938,3.1949,3.2007,3.2052,3.206,3.2067,3.205,3.2072,3.2088,3.2081,3.2174,3.215,3.2161,3.2191,3.2284,3.2288,3.2292,3.2313,3.2321,3.2328,0,0,0,0,0,0,3.1915,3.1945,3.1942,3.1996,3.2022,3.205,3.2078,3.2075,3.2106,3.2103,3.2111,3.2118,3.2171,3.2186,3.2159,3.225,3.2226,3.2233,3.2238,3.2246,3.2252,3.2247,3.214,0,0,0,0,0,3.1925,3.1958,3.1984,3.203,3.2043,3.2058,3.2078,3.2082,3.2109,3.2119,3.2139,3.2166,3.2202,3.2225,3.2258,3.2318,3.2326,3.2345,3.2351,3.2355,3.2361,3.2395,3.2404,3.2308,3.2308,3.2308,0,0,3.1946,3.1967,3.1988,3.2034,3.2054,3.2089,3.2067,3.2106,3.2133,3.2126,3.2175,3.2191,3.2222,3.2278,3.2304,3.2292,3.2389,3.2361,3.2365,3.2368,3.24,3.241,3.2418,3.2311,3.2311,3.231,0,0,3.2003,3.2022,3.2063,3.2083,3.2114,3.2124,3.2134,3.2164,3.2174,3.2224,3.222,3.2252,3.2313,3.2335,3.2355,3.2422,3.2418,3.2433,3.2465,3.2498,3.2506,3.2512,3.2537,3.2546,3.2439,3.2439,3.2439,0,3.2026,3.2078,3.2084,3.2123,3.2144,3.2139,3.2182,3.2202,3.2242,3.2257,3.2244,3.2321,3.2341,3.2403,3.242,3.2435,3.2448,3.2429,3.2504,3.2511,3.2517,3.2541,3.255,3.2441,3.2441,3.2441,3.244,0,3.2105,3.2142,3.2172,3.221,3.2235,3.2275,3.2289,3.2313,3.2315,3.2327,3.2379,3.2404,3.2443,3.2458,3.246,3.2521,3.2513,3.2502,3.2478,3.2528,3.2551,3.256,3.2443,3.2443,3.2442,3.2442,0,0,3.2174,3.2216,3.2227,3.2245,3.2279,3.2308,3.235,3.2387,3.2408,3.2437,3.2473,3.2525,3.2515,3.2537,3.2542,3.2571,3.2624,3.2556,3.2557,3.2569,3.2694,3.2702,3.2712,3.2621,3.2623,3.2624,3.2691,0,3.2234,3.2306,3.2313,3.2378,3.2412,3.2409,3.2445,3.2471,3.2484,3.2516,3.2531,3.2568,3.2552,3.2566,3.2594,3.2611,3.2649,3.2607,3.2655,3.2657,3.2647,3.2724,3.2732,3.2794,3.27,3.2702,3.2703,0,3.2314,3.2345,3.2413,3.2443,3.2458,3.249,3.2526,3.2557,3.2587,3.2594,3.262,3.2621,3.2665,3.264,3.2701,3.2672,3.2693,3.2704,3.2707,3.2712,3.2683,3.2731,3.2814,3.2824,3.2717,3.2715,3.2714,0,3.2358,3.2416,3.2465,3.248,3.2517,3.254,3.2556,3.2584,3.2607,3.2639,3.2654,3.2691,3.2712,3.2741,3.2753,3.2733,3.2814,3.279,3.2823,3.2822,3.284,3.2838,3.2927,3.2853,3.2853,3.2852,3.2852,0,3.2425,3.2467,3.2485,3.2515,3.2562,3.2571,3.2618,3.2634,3.2659,3.2693,3.2693,3.2724,3.2738,3.2773,3.2783,3.2832,3.2842,3.285,3.2852,3.285,3.2849,3.2863,3.2859,3.2855,3.2854,3.2854,3.2853,0,3.2482,3.2495,3.2548,3.2579,3.2588,3.2621,3.2648,3.2678,3.2691,3.2734,3.2744,3.2765,3.2806,3.2821,3.2871,3.2877,3.2935,3.2934,3.2925,3.2926,3.2958,3.2955,3.306,3.3074,3.299,3.299,3.2991,0,3.2523,3.2555,3.259,3.2612,3.2629,3.2665,3.2689,3.2699,3.2724,3.2761,3.2787,3.2827,3.286,3.2925,3.2946,3.2984,3.2984,3.3018,3.299,3.2987,3.2985,3.2983,3.2987,3.3023,3.3024,3.3025,3.3025,0,3.2596,3.2602,3.2635,3.2671,3.2699,3.2728,3.2757,3.2775,3.279,3.2818,3.286,3.2885,3.2936,3.2977,3.3017,3.3035,3.3033,3.3034,3.3044,3.3042,3.3036,3.304,3.294,3.3032,3.3031,3.3031,3.303,3.303,3.2647,3.2676,3.2705,3.2742,3.2765,3.2792,3.2821,3.2838,3.2873,3.2914,3.2919,3.2964,3.2995,3.3048,3.3068,3.3104,3.3095,3.3109,3.3112,3.3116,3.3118,3.303,3.3111,3.3111,3.3111,3.3111,3.3111,0,3.272,3.2739,3.2773,3.2813,3.2843,3.2838,3.287,3.2896,3.2935,3.2963,3.2996,3.3044,3.3084,3.3108,3.3148,3.3172,3.3173,3.3183,3.3181,3.3185,3.3124,3.3112,3.3182,3.3182,3.3182,3.3182,3.3182,3.3182,3.2762,3.2811,3.282,3.2881,3.2899,3.2943,3.2961,3.2987,3.3009,3.3063,3.3096,3.3111,3.3138,3.3181,3.3217,3.3224,3.3239,3.3249,3.3255,3.3197,3.319,3.3183,3.3171,3.3253,3.3253,3.3313,3.3314,3.3314]},{"header":{"parameterUnit":"m.s-1","parameterCategory":1,"la1":30.2991,"la2":30.254,"lo1":-89.0895,"lo2":-89.0444,"dy":0.0017,"dx":0.0017,"nx":28,"ny":28,"refTime":"2025-08-13T21:00:00:Z","depth":0,"parameterNumber":3,"parameterNumberName":"V-component_of_WINDS"},"data":[0,0,0,0,0,0,0,0,0,0,0,0,0,0,0,0,0,0,0,0,0,0,0,0,0,0,0,0,0,0,0,0,0,0,0,0,0,0,0,0,0,0,0,0,0,0,0,0,0,0,0,0,0,0,0,0,0,0,-0.0297,-0.0297,0,-0.0297,-0.0297,-0.0297,-0.0317,-0.0318,-0.0318,-0.0319,-0.0318,-0.0317,-0.0317,0,0,0,0,0,0,0,0,0,0,0,0,0,-0.0318,-0.0317,-0.0297,-0.0297,-0.0297,-0.0297,-0.0297,-0.0297,-0.0317,-0.0318,-0.0319,-0.0319,-0.0318,-0.0317,-0.0317,0,0,0,0,0,0,0,0,0,0,0,0,0,-0.0312,-0.0317,-0.0297,-0.0308,-0.0309,-0.0297,-0.0297,-0.0297,-0.0317,-0.0318,-0.0319,-0.032,-0.0318,-0.0317,-0.0316,-0.0295,0,0,-0.0314,-0.0314,0,0,0,0,0,0,0,0,-0.0312,-0.0311,-0.0306,-0.0307,-0.0308,-0.0308,-0.0303,-0.0296,-0.0317,-0.0314,-0.0319,-0.032,-0.0314,-0.0313,-0.0311,-0.0295,-0.0295,-0.0314,-0.0313,-0.0313,-0.0313,0,0,0,0,0,0,0,-0.0313,-0.0311,-0.0297,-0.0306,-0.0307,-0.0313,-0.0313,-0.0302,-0.0309,-0.0314,-0.0316,-0.0315,-0.0314,-0.0312,-0.0311,-0.0295,-0.0314,-0.0313,-0.0313,-0.0312,-0.0263,-0.0262,0,0,0,0,0,0,-0.0312,-0.0312,-0.0297,-0.0297,-0.0312,-0.0312,-0.0312,-0.0307,-0.0309,-0.031,-0.0315,-0.0316,-0.0313,-0.0312,-0.0312,-0.0288,-0.0313,-0.0312,-0.0312,-0.0263,-0.0262,-0.0261,0,0,0,0,0,0,-0.0312,-0.031,-0.0297,-0.0305,-0.0304,-0.031,-0.0305,-0.0307,-0.0304,-0.031,-0.0311,-0.0311,-0.0314,-0.0313,-0.0299,-0.0288,-0.0312,-0.0311,-0.0264,-0.0263,-0.0262,-0.0239,0,0,0,0,0,0,-0.0313,-0.031,-0.0302,-0.0305,-0.0303,-0.0285,-0.0304,-0.0306,-0.0303,-0.0305,-0.0307,-0.0308,-0.0314,-0.03,-0.0299,-0.0287,-0.031,-0.0265,-0.0264,-0.0262,-0.0241,-0.0237,-0.0234,0,0,0,0,0,-0.0313,-0.0295,-0.0301,-0.0299,-0.0293,-0.0284,-0.0283,-0.0291,-0.0302,-0.0294,-0.0298,-0.0308,-0.029,-0.0299,-0.0297,-0.0285,-0.0266,-0.0264,-0.0262,-0.0242,-0.0238,-0.0234,0,0,0,0,0,0,-0.0289,-0.0295,-0.0302,-0.0284,-0.0284,-0.0287,-0.0277,-0.0286,-0.0282,-0.0284,-0.0295,-0.0295,-0.028,-0.0281,-0.0292,-0.0266,-0.028,-0.0277,-0.0265,-0.0261,-0.0258,-0.0258,-0.031,0,0,0,0,0,-0.0282,-0.0275,-0.028,-0.0263,-0.0263,-0.027,-0.0267,-0.0273,-0.0273,-0.0273,-0.0275,-0.0275,-0.0269,-0.0265,-0.026,-0.0241,-0.0243,-0.0232,-0.0229,-0.0226,-0.0224,-0.0216,-0.0212,-0.0255,-0.0255,-0.0255,0,0,-0.0267,-0.0269,-0.0264,-0.0259,-0.0259,-0.0252,-0.027,-0.026,-0.0255,-0.0271,-0.0259,-0.0261,-0.0261,-0.0246,-0.0239,-0.0246,-0.0213,-0.0224,-0.0222,-0.0221,-0.0214,-0.021,-0.0206,-0.0254,-0.0254,-0.0255,0,0,-0.0236,-0.0236,-0.0223,-0.0224,-0.0224,-0.0229,-0.0226,-0.0229,-0.0232,-0.022,-0.0232,-0.0226,-0.0216,-0.0216,-0.0215,-0.0186,-0.0196,-0.0184,-0.0166,-0.0159,-0.0155,-0.0152,-0.0143,-0.014,-0.0182,-0.0182,-0.0182,0,-0.0216,-0.0206,-0.0215,-0.0206,-0.0204,-0.0219,-0.0207,-0.0207,-0.0205,-0.0204,-0.0212,-0.0201,-0.0202,-0.0188,-0.0181,-0.0179,-0.0177,-0.0184,-0.0155,-0.0152,-0.0149,-0.0141,-0.0137,-0.0181,-0.0181,-0.0181,-0.0181,0,-0.0183,-0.0175,-0.0165,-0.0165,-0.0162,-0.0151,-0.0159,-0.0155,-0.0163,-0.0167,-0.0156,-0.0158,-0.0155,-0.0152,-0.0158,-0.0139,-0.0143,-0.0153,-0.0168,-0.0144,-0.0136,-0.0133,-0.0179,-0.0179,-0.018,-0.018,0,0,-0.0136,-0.0142,-0.0138,-0.0139,-0.0142,-0.0136,-0.0127,-0.0124,-0.0121,-0.012,-0.0113,-0.0105,-0.0115,-0.0113,-0.012,-0.0113,-0.0092,-0.0124,-0.0124,-0.0119,-0.0073,-0.0066,-0.0062,-0.0098,-0.0098,-0.0097,-0.0073,0,-0.0106,-0.0091,-0.01,-0.0083,-0.0077,-0.0092,-0.0084,-0.0085,-0.009,-0.0086,-0.0091,-0.0085,-0.0098,-0.0097,-0.0091,-0.0096,-0.0083,-0.0098,-0.0093,-0.0093,-0.0093,-0.0058,-0.005,-0.0027,-0.007,-0.0069,-0.0069,0,-0.007,-0.0068,-0.0051,-0.0057,-0.0055,-0.0047,-0.0047,-0.0042,-0.0045,-0.0048,-0.0048,-0.0057,-0.0049,-0.0063,-0.0053,-0.0063,-0.0062,-0.0064,-0.0064,-0.0064,-0.008,-0.0058,-0.0019,-0.0016,-0.0064,-0.0064,-0.0065,0,-0.0039,-0.0032,-0.0022,-0.0022,-0.0028,-0.0023,-0.0025,-0.0028,-0.0027,-0.0026,-0.0025,-0.0023,-0.0023,-0.0021,-0.0031,-0.004,-0.002,-0.0034,-0.0023,-0.0023,-0.0019,-0.0019,0.002,-0.0016,-0.0016,-0.0017,-0.0017,0,-0.0005,0.0006,-0.0008,-0.0002,0.0009,-0.0002,0.0009,0.0005,0.0002,0.0007,-0.0005,-0.0,-0.0012,-0.0009,-0.0016,-0.0007,-0.0007,-0.001,-0.0012,-0.0009,-0.0009,-0.0009,-0.0011,-0.0016,-0.0016,-0.0016,-0.0016,0,0.0031,0.0023,0.0033,0.0026,0.0024,0.0032,0.0026,0.0031,0.0025,0.0031,0.0032,0.0023,0.0026,0.0017,0.0019,0.0014,0.0026,0.0022,0.0027,0.0025,0.0036,0.0035,0.0076,0.008,0.0042,0.0043,0.0043,0,0.0053,0.006,0.0054,0.0056,0.0054,0.0058,0.0059,0.0047,0.0049,0.0046,0.0051,0.0053,0.0054,0.0059,0.0053,0.0054,0.0049,0.0063,0.0049,0.0051,0.0047,0.0047,0.0047,0.0066,0.0066,0.0066,0.0067,0,0.0091,0.0086,0.0088,0.0088,0.0089,0.0089,0.0088,0.009,0.0078,0.008,0.0083,0.0083,0.0084,0.0086,0.0085,0.0082,0.0072,0.0071,0.0073,0.0076,0.0078,0.0076,0.0034,0.007,0.007,0.007,0.0069,0.0069,0.012,0.0125,0.0121,0.0123,0.0121,0.0119,0.0123,0.0117,0.0119,0.0119,0.0112,0.0115,0.0111,0.0109,0.0107,0.0109,0.0103,0.0106,0.0107,0.0108,0.0109,0.0078,0.0109,0.0109,0.0109,0.0109,0.0109,0,0.0157,0.0153,0.0155,0.0153,0.0154,0.0144,0.0141,0.0143,0.0146,0.0143,0.0144,0.0146,0.0147,0.0139,0.0139,0.0142,0.0138,0.0143,0.0142,0.0141,0.0116,0.0113,0.0146,0.0146,0.0146,0.0146,0.0146,0.0146,0.0176,0.0184,0.0178,0.0184,0.018,0.0183,0.0182,0.018,0.0178,0.018,0.0181,0.0176,0.0171,0.017,0.017,0.0168,0.0168,0.0174,0.017,0.0147,0.0143,0.014,0.0137,0.0174,0.0175,0.0195,0.0195,0.0195]}]]